Theta_e
360 358 356 354 352 350 349 349 350 351 353 353 353 353 353 351 350 352 352 349 350 348
356 357 357 358 356 356 354 351 347 344 351 353 354 353 352 353 352 350 352 353 352 350
350 351 354 355 355 356 356 355 352 350 345 351 352 352 353 352 353 352 351 354 353 353
345 348 349 351 354 357 356 356 355 354 353 341 345 351 351 353 353 351 352 354 353 353
345 345 345 346 348 352 353 355 356 356 354 353 353 354 352 351 353 352 351 353 354 353
340 341 341 342 343 344 347 350 353 354 353 353 354 351 354 345 343 344 351 352 353 354
337 340 339 339 341 342 343 345 348 351 351 352 353 352 350 341 337 337 340 346 353 354
336 338 338 337 339 342 342 342 343 346 350 350 350 352 348 346 339 337 334 335 339 354
336 335 337 337 338 339 340 340 341 343 345 348 351 341 333 342 339 336 336 337 341 352
334 334 334 335 336 337 337 337 339 340 344 345 347 331 331 333 340 340 340 338 341 347
332 331 333 334 335 336 337 336 336 339 341 343 340 326 323 329 345 333 330 330 334 343
328 328 328 329 332 334 335 336 336 337 339 340 341 323 322 326 341 343 336 335 345 345
327 328 328 329 329 331 332 335 336 336 338 335 338 323 317 324 335 335 337 340 345 333
324 326 328 329 327 331 331 332 332 332 332 330 327 326 314 314 330 336 335 337 339 343
Wind_Speed
9 9 9 9 9 9 7 10 10 15 16 18 16 14 12 11 11 8 11 14 9 7
7 8 9 11 11 11 13 10 13 10 13 15 15 15 15 12 13 13 10 11 11 10
7 8 8 9 13 12 12 14 13 14 13 12 14 15 14 13 14 12 11 9 11 12
7 6 6 7 6 9 11 12 15 16 15 12 16 15 15 16 16 16 14 13 13 15
7 7 7 7 8 8 10 10 14 14 15 14 12 13 17 18 15 15 17 16 15 15
7 8 7 6 7 7 7 8 11 12 15 15 12 16 16 9 4 13 18 17 17 15
7 8 8 7 7 8 7 7 9 12 14 14 15 15 13 12 13 11 12 18 16 17
7 7 8 8 8 8 6 9 10 13 13 12 12 11 11 14 17 21 26 24 25 20
8 8 8 10 9 8 8 9 10 13 13 11 10 13 16 14 16 23 15 19 23 28
7 7 7 8 8 8 9 8 10 12 11 9 9 14 19 22 16 19 19 19 18 20
5 6 7 8 8 9 8 9 9 10 10 6 3 9 10 19 18 8 8 11 14 21
5 6 7 8 10 8 7 7 9 9 9 6 5 9 11 8 9 14 15 14 42 29
6 6 6 8 12 7 7 7 7 8 8 9 7 10 8 7 4 6 5 6 5 12
6 6 8 7 6 7 6 5 6 4 3 3 5 1 6 5 3 3 2 5 3 3
Wind_Direction
223 225 230 225 225 234 224 230 216 222 217 216 212 206 205 214 218 211 213 214 208 206
246 234 236 235 233 232 236 227 236 228 231 220 217 213 202 213 222 220 217 211 212 214
235 245 248 247 249 240 232 236 235 237 229 216 216 219 209 214 222 223 223 220 211 217
243 248 265 268 257 252 247 244 237 235 240 217 226 215 217 215 215 217 222 225 218 223
245 249 243 245 259 268 265 247 246 250 244 240 230 209 216 215 215 215 219 217 219 225
311 279 258 271 277 277 278 276 261 248 246 248 237 240 218 195 247 301 259 226 216 213
292 288 273 269 263 265 263 273 281 272 255 248 246 244 227 184 207 239 270 275 236 217
276 272 278 274 263 260 267 277 278 277 272 255 244 243 234 184 189 240 245 260 265 244
283 279 270 275 269 256 255 264 271 276 275 256 245 239 206 193 181 206 235 252 261 244
279 283 275 272 276 261 251 260 271 277 275 262 252 234 211 194 188 198 202 213 238 247
326 311 299 290 282 268 257 252 264 274 277 259 278 218 232 214 208 208 271 298 242 253
320 311 314 317 297 285 284 277 265 264 263 246 236 210 232 227 208 206 219 211 249 222
312 307 305 317 304 280 257 256 257 255 249 235 244 212 230 227 215 235 221 242 214 199
323 321 314 297 283 294 305 336 346 0 32 80 340 69 230 225 277 250 235 262 246 226